Location: Navarre
(52.9016°N, 113.4144°W)
Time: 12:28:22
(UTC+00:00)

Envisat - Pass Details

Date: 01 December 2021
Orbit: 764 x 766 km, 98.2° (Epoch: 23 January)

Event Time Altitude Azimuth Distance (km) Brightness Sun altitude
Rises 12:22:06 0° 17° (NNE) 3,248 6.4 -26.3°
Reaches altitude 10° 12:24:29 10° 22° (NNE) 2,317 5.7 -26.0°
Maximum altitude 12:29:29 54° 100° (E) 935 3.7 -25.2°
Drops below altitude 10° 12:34:27 10° 177° (S) 2,299 5.5 -24.5°
Sets 12:36:47 0° 182° (S) 3,220 6.3 -24.1°
